STARLINK-32630, 62047

Orbit data source: Space-Track

STARLINK-32630, 62047 is a payload satellite owned by SpaceX/Seattle (US) in LEO that was launched on Thu, 21 Nov 2024 UTC via an FALCON 9 launch vehicle from the Air Force Eastern Test Range (AFETR). Payload-class satellites include a variety of spacecraft equipped with specific instruments for various scientific and technological missions. These include communications satellites like Starlink; space stations such as the ISS; scientific satellites like the Hubble; Earth observation satellites from companies like Planet Labs, Umbra, and HawkEye 360; GPS; miniature CubeSats for education and research; and military/defense satellites.

Loading next visibility...
Identifier
62047, 2024-216R
Orbit
LEO
Country
Flag of USUS
Related business
Manufacturer
SpaceX/Seattle
Mission
Operational Commercial Communications
Bus & Motor
STARLINK V2M, Unknown motor
Mass
730 kg wet, ~700 kg dry
Launch date (UTC)
2024-11-21 (2 years ago)
Launch vehicle
FALCON 9
Launch site
Air Force Eastern Test Range (AFETR)
Object type
Payload
Rocket body
Debris
Shape & HBR
Box + 2 Pan, 17.7 m
Radar Cross Section
33.884 m², Large (>1 m²)

Expand to show TLE details & history
Last TLE update: 16 hours ago

TLE from 16 hours ago
0 STARLINK-32630
1 62047U 24216R   26236.41736125  .00022592  00000-0  82774-3 0  9993
2 62047  43.0036  36.3316 0003527 283.9635  76.0824 15.27586421 99446
Epoch: 2026-08-24T10:01Z
TLE epoch observation values (Epoch: 2026-08-24T10:01:00.012Z)
Latitude
-0.00002°
Longitude
-86.61784°
Altitude
482.225 km
Speed
7.626 km/s
True Right ascension
02h 25m 19s
True Declination
0° 00' 00"
Sunlit
Object was in full shadow at epoch
Visualization orbit readout
Latitude
Unknown
Longitude
Unknown
Altitude
Unknown
Speed
Unknown
Apparent Right ascension
Unknown
Apparent Declination
Unknown
Sunlit
N/A
Visualization observer readout
Local Sidereal Time
17:06:09
Azimuth
Unknown
Elevation
Unknown
Doppler factor
Unknown
Orbital elements
Apogee altitude
487.395 km
Perigee altitude
482.554 km
Semi-major axis
6,863.111 km
Eccentricity
0.00035
Inclination
43.0036°
RAAN
36.3316°
Arg. of periapsis
283.9635°
True anomaly
76.12163°
Mean anomaly
76.0824°
Eccentric anomaly
76.10202°
Mean motion
3.81735 °/min
Orbital period
94.31 mins
BSTAR
0.00082774
Loading maneuver chart data...
Computing Atmospheric mass density...
Loading historical data...
Loading historical data...
Loading historical data...
Loading historical data...
Loading historical data...
Loading historical data...
Loading historical data...

Documentation

Showing up to 5 results
|